FW2905 Weather Reports


Display with metric or nautical units.
time (UTC)temp
F
wind
direction
speed
MPH
gust
MPH
rain 1hr
in
rain 24hr
in
rain mn
in
humidity
%
barometer
mb
20260906132017 68 51 1.0 3.0 0.00 0.00 0.00 88 1021.7
20260906131540 68 91 0.0 2.0 0.00 0.00 0.00 88 1021.8
20260906131020 67 150 0.0 2.0 0.00 0.00 0.00 88 1021.7
20260906130517 67 121 0.0 2.0 0.00 0.00 0.00 90 1021.7
20260906130041 66 61 1.0 2.0 0.00 0.00 0.00 92 1021.5
20260906125517 66 51 0.0 2.0 0.00 0.00 0.00 93 1021.6
20260906125019 65 58 0.0 2.0 0.00 0.00 0.00 93 1021.5
20260906124543 65 72 0.0 2.0 0.00 0.00 0.00 94 1021.2
20260906124016 65 69 0.0 2.0 0.00 0.00 0.00 94 1021.1
20260906123518 64 0 0.0 1.0 0.00 0.00 0.00 95 1021.0
20260906123043 64 0 0.0 2.0 0.00 0.00 0.00 95 1020.9
20260906122520 63 0 0.0 2.0 0.00 0.00 0.00 95 1020.9
20260906122021 63 130 0.0 2.0 0.00 0.00 0.00 96 1020.8
20260906121536 62 0 0.0 2.0 0.00 0.00 0.00 96 1020.9
20260906121019 62 0 0.0 2.0 0.00 0.00 0.00 95 1020.8
20260906120521 62 0 0.0 2.0 0.00 0.00 0.00 95 1020.7
20260906120045 62 49 0.0 2.0 0.00 0.00 0.00 95 1020.6
20260906115516 62 49 0.0 2.0 0.00 0.00 0.00 95 1020.6
20260906115019 62 49 0.0 2.0 0.00 0.00 0.00 95 1020.6
20260906114541 62 49 0.0 1.0 0.00 0.00 0.00 95 1020.5
20260906114018 62 49 0.0 1.0 0.00 0.00 0.00 95 1020.4
20260906113518 62 49 1.0 2.0 0.00 0.00 0.00 95 1020.4
20260906113043 62 49 1.0 2.0 0.00 0.00 0.00 95 1020.3
20260906112520 62 74 0.0 2.0 0.00 0.00 0.00 95 1020.1
20260906112020 62 57 0.0 2.0 0.00 0.00 0.00 95 1020.1
20260906111550 61 83 0.0 2.0 0.00 0.00 0.00 95 1020.1
20260906111019 60 0 0.0 2.0 0.00 0.00 0.00 95 1020.0
20260906110519 60 109 0.0 1.0 0.00 0.00 0.00 95 1020.0
20260906110046 60 0 0.0 1.0 0.00 0.00 0.00 95 1020.0
20260906105517 60 0 0.0 1.0 0.00 0.00 0.00 95 1019.9
20260906105021 61 0 0.0 2.0 0.00 0.00 0.00 95 1019.9
20260906104537 61 0 0.0 2.0 0.00 0.00 0.00 95 1020.0
20260906104020 61 109 0.0 1.0 0.00 0.00 0.00 95 1019.9
20260906103518 61 96 0.0 2.0 0.00 0.00 0.00 95 1019.9
20260906103036 61 90 0.0 2.0 0.00 0.00 0.00 95 1020.0
20260906102517 61 100 0.0 2.0 0.00 0.00 0.00 94 1019.9
20260906102018 61 80 0.0 2.0 0.00 0.00 0.00 95 1020.0
20260906101538 61 67 0.0 2.0 0.00 0.00 0.00 95 1020.0
20260906101016 62 47 0.0 2.0 0.00 0.00 0.00 95 1019.9
20260906100523 61 0 0.0 1.0 0.00 0.00 0.00 95 1019.9
20260906100039 61 0 0.0 1.0 0.00 0.00 0.00 94 1019.9
20260906095517 61 0 0.0 1.0 0.00 0.00 0.00 94 1019.9
20260906095023 62 0 0.0 2.0 0.00 0.00 0.00 94 1019.7
20260906094535 62 47 1.0 2.0 0.00 0.00 0.00 94 1019.7
20260906094019 62 71 0.0 2.0 0.00 0.00 0.00 94 1019.7
20260906093519 62 69 1.0 2.0 0.00 0.00 0.00 94 1019.7
20260906093046 62 64 0.0 2.0 0.00 0.00 0.00 94 1019.8
20260906092516 62 22 0.0 2.0 0.00 0.00 0.00 94 1019.7
20260906092016 62 0 0.0 2.0 0.00 0.00 0.00 94 1019.8
20260906091538 62 0 1.0 2.0 0.00 0.00 0.00 94 1019.7
20260906091021 62 9 1.0 2.0 0.00 0.00 0.00 94 1019.8
20260906090518 62 0 0.0 2.0 0.00 0.00 0.00 93 1019.7
20260906090107 62 51 1.0 4.0 0.00 0.00 0.00 93 1019.6
20260906085520 62 63 1.0 4.0 0.00 0.00 0.00 93 1019.4
20260906085022 62 83 1.0 3.0 0.00 0.00 0.00 93 1019.5
20260906084536 63 42 1.0 3.0 0.00 0.00 0.00 93 1019.6
20260906084020 63 24 1.0 3.0 0.00 0.00 0.00 93 1019.6
20260906083518 63 5 1.0 4.0 0.00 0.00 0.00 93 1019.7
20260906083041 63 55 1.0 4.0 0.00 0.00 0.00 93 1019.6
20260906082516 63 352 2.0 4.0 0.00 0.00 0.00 93 1019.7
20260906082017 63 15 2.0 4.0 0.00 0.00 0.00 93 1019.7
20260906081539 63 12 2.0 4.0 0.00 0.00 0.00 93 1019.6
20260906081020 63 9 1.0 5.0 0.00 0.00 0.00 93 1019.6
20260906080524 63 19 2.0 5.0 0.00 0.00 0.00 94 1019.7
20260906080040 63 336 1.0 2.0 0.00 0.00 0.00 94 1019.5
20260906075517 63 336 1.0 3.0 0.00 0.00 0.00 94 1019.5
20260906075017 63 321 1.0 3.0 0.00 0.00 0.00 94 1019.6
20260906074548 63 334 2.0 3.0 0.00 0.00 0.00 94 1019.6
20260906074018 63 319 1.0 3.0 0.00 0.00 0.00 94 1019.6
20260906073518 63 330 2.0 3.0 0.00 0.00 0.00 94 1019.6
20260906073036 62 9 1.0 3.0 0.00 0.00 0.00 94 1019.6
20260906072517 62 350 1.0 3.0 0.00 0.00 0.00 94 1019.4
20260906072019 62 360 2.0 3.0 0.00 0.00 0.00 94 1019.3
20260906071539 62 15 1.0 2.0 0.00 0.00 0.00 93 1019.2
20260906071021 62 343 1.0 2.0 0.00 0.00 0.00 93 1019.3
20260906070516 62 0 0.0 2.0 0.00 0.00 0.00 93 1019.2
20260906070041 62 0 0.0 2.0 0.00 0.00 0.00 93 1019.2
20260906065524 62 324 1.0 2.0 0.00 0.00 0.00 93 1019.3
20260906065025 62 327 1.0 3.0 0.00 0.00 0.00 93 1019.3
20260906064536 63 352 1.0 3.0 0.00 0.00 0.00 93 1019.3
20260906064019 63 360 1.0 5.0 0.00 0.00 0.00 93 1019.4
20260906063521 63 352 1.0 5.0 0.00 0.00 0.00 93 1019.4
20260906063040 62 323 1.0 4.0 0.00 0.00 0.00 93 1019.4
20260906062516 62 352 1.0 3.0 0.00 0.00 0.00 94 1019.4
20260906062021 62 322 1.0 3.0 0.00 0.00 0.00 93 1019.3
20260906061547 62 346 1.0 3.0 0.00 0.00 0.00 93 1019.4
20260906061021 62 349 1.0 4.0 0.00 0.00 0.00 94 1019.3
20260906060519 62 323 2.0 4.0 0.00 0.00 0.00 94 1019.2
20260906060039 62 328 2.0 4.0 0.00 0.00 0.00 94 1019.0
20260906055519 62 318 1.0 2.0 0.00 0.00 0.00 93 1019.2
20260906055020 62 341 1.0 2.0 0.00 0.00 0.00 93 1019.1
20260906054544 62 0 0.0 2.0 0.00 0.00 0.00 93 1019.0
20260906054018 62 352 0.0 2.0 0.00 0.00 0.00 93 1019.0
20260906053517 62 34 0.0 2.0 0.00 0.00 0.00 93 1019.0
20260906053037 62 9 1.0 2.0 0.00 0.00 0.00 93 1019.1
20260906052520 62 9 1.0 2.0 0.00 0.00 0.00 93 1019.1
20260906052020 63 350 1.0 3.0 0.00 0.00 0.00 93 1019.1
20260906051541 63 301 1.0 3.0 0.00 0.00 0.00 92 1019.1
20260906051016 63 35 1.0 4.0 0.00 0.00 0.00 92 1019.1
20260906050518 63 348 1.0 4.0 0.00 0.00 0.00 92 1019.1
20260906050042 63 30 1.0 3.0 0.00 0.00 0.00 92 1018.9
20260906045516 63 31 1.0 3.0 0.00 0.00 0.00 92 1019.1
20260906045015 63 35 1.0 3.0 0.00 0.00 0.00 92 1018.9
20260906044538 63 346 1.0 3.0 0.00 0.00 0.00 92 1019.1
20260906044023 63 340 1.0 4.0 0.00 0.00 0.00 92 1019.1
20260906043520 63 348 2.0 4.0 0.00 0.00 0.00 92 1019.0
20260906043038 63 30 1.0 3.0 0.00 0.00 0.00 92 1018.8
20260906042518 63 11 1.0 4.0 0.00 0.00 0.00 92 1018.8
20260906042017 63 5 2.0 4.0 0.00 0.00 0.00 92 1018.9
20260906041547 64 352 1.0 4.0 0.00 0.00 0.00 92 1018.9
20260906041017 63 352 1.0 3.0 0.00 0.00 0.00 92 1018.9
20260906040516 64 322 1.0 2.0 0.00 0.00 0.00 91 1018.8
20260906040039 64 11 1.0 3.0 0.00 0.00 0.00 91 1018.7
20260906035522 64 31 1.0 4.0 0.00 0.00 0.00 91 1018.6
20260906035019 64 32 1.0 4.0 0.00 0.00 0.00 91 1018.5
20260906034543 64 60 2.0 3.0 0.00 0.00 0.00 90 1018.5
20260906034024 64 42 1.0 7.0 0.00 0.00 0.00 90 1018.5
20260906033518 64 104 2.0 7.0 0.00 0.00 0.00 90 1018.6
20260906033039 64 25 2.0 7.0 0.00 0.00 0.00 90 1018.6
20260906032518 64 54 3.0 7.0 0.00 0.00 0.00 89 1018.6
20260906032018 64 24 2.0 5.0 0.00 0.00 0.00 89 1018.6
20260906031541 64 32 2.0 5.0 0.00 0.00 0.00 89 1018.6
20260906031016 65 61 2.0 4.0 0.00 0.00 0.00 89 1018.7
20260906030522 65 46 2.0 4.0 0.00 0.00 0.00 88 1018.7
20260906030048 65 38 2.0 4.0 0.00 0.00 0.00 88 1018.8
20260906025524 65 49 1.0 4.0 0.00 0.00 0.00 88 1018.8
20260906025021 65 40 1.0 3.0 0.00 0.00 0.00 88 1018.8
20260906024605 65 34 1.0 3.0 0.00 0.00 0.00 88 1018.8
20260906024020 64 52 1.0 3.0 0.00 0.00 0.00 88 1018.7
20260906023517 65 38 1.0 3.0 0.00 0.00 0.00 88 1018.8
20260906023038 65 54 1.0 4.0 0.00 0.00 0.00 88 1018.6
20260906022521 65 38 2.0 4.0 0.00 0.00 0.00 88 1018.6
20260906022021 65 46 2.0 4.0 0.00 0.00 0.00 88 1018.5
20260906021543 65 54 1.0 4.0 0.00 0.00 0.00 88 1018.5
20260906021017 65 43 2.0 3.0 0.00 0.00 0.00 89 1018.5
20260906020520 65 57 1.0 3.0 0.00 0.00 0.00 90 1018.6
20260906020043 65 28 1.0 4.0 0.00 0.00 0.00 90 1018.6
20260906015522 65 12 2.0 4.0 0.00 0.00 0.00 90 1018.5
20260906015018 65 40 1.0 3.0 0.00 0.00 0.00 90 1018.4
20260906014549 65 39 0.0 2.0 0.00 0.00 0.00 91 1018.3
20260906014024 65 53 1.0 2.0 0.00 0.00 0.00 91 1018.3
20260906013526 65 49 0.0 2.0 0.00 0.00 0.00 92 1018.3
20260906013038 65 0 0.0 0.0 0.00 0.00 0.00 92 1018.2
20260906012519 65 0 0.0 0.0 0.00 0.00 0.00 91 1018.2
20260906012019 65 0 0.0 2.0 0.00 0.00 0.00 90 1018.1
20260906011552 66 0 0.0 2.0 0.00 0.00 0.00 91 1018.1
20260906011017 66 0 0.0 2.0 0.00 0.00 0.00 90 1018.0
20260906010524 66 53 0.0 2.0 0.00 0.00 0.00 90 1018.1
20260906010105 66 46 0.0 2.0 0.00 0.00 0.00 90 1018.1
20260906005518 66 45 1.0 3.0 0.00 0.00 0.00 91 1018.1
20260906005021 66 26 0.0 3.0 0.00 0.00 0.00 89 1018.1
20260906004546 67 47 1.0 2.0 0.00 0.00 0.00 89 1018.1
20260906004026 67 49 1.0 2.0 0.00 0.00 0.00 90 1018.1
20260906003523 67 40 0.0 2.0 0.00 0.00 0.00 90 1018.1
20260906003045 67 40 0.0 2.0 0.00 0.00 0.00 89 1018.4
20260906002519 68 39 1.0 2.0 0.00 0.00 0.00 88 1018.3
20260906002022 68 0 0.0 2.0 0.00 0.00 0.00 88 1018.3
20260906001558 69 0 0.0 3.0 0.00 0.00 0.00 87 1018.4
20260906001022 69 51 2.0 3.0 0.00 0.00 0.00 87 1018.4
20260906000520 69 64 1.0 3.0 0.00 0.00 0.00 87 1018.3
20260906000043 69 38 1.0 2.0 0.00 0.00 0.00 86 1018.3
20260905235519 70 73 0.0 3.0 0.00 0.00 0.00 86 1018.4
20260905235020 70 44 1.0 5.0 0.00 0.00 0.00 86 1018.4
20260905234541 70 49 1.0 5.0 0.00 0.00 0.00 86 1018.4
20260905234018 70 79 2.0 5.0 0.00 0.00 0.00 86 1018.4
20260905233516 70 30 2.0 5.0 0.00 0.00 0.00 86 1018.4
20260905233040 70 88 2.0 4.0 0.00 0.00 0.00 86 1018.2
20260905232519 70 86 1.0 4.0 0.00 0.00 0.00 86 1018.1
20260905232022 70 5 0.0 4.0 0.00 0.00 0.00 87 1018.2
20260905231544 70 13 1.0 5.0 0.00 0.00 0.00 87 1018.2
20260905231018 70 59 2.0 5.0 0.00 0.00 0.00 86 1018.1
20260905230518 70 46 3.0 6.0 0.00 0.00 0.00 86 1018.1
20260905230047 70 72 1.0 6.0 0.00 0.00 0.00 86 1018.1
20260905225520 71 74 2.0 8.0 0.00 0.00 0.00 85 1018.1
20260905225018 71 51 3.0 8.0 0.00 0.00 0.00 85 1018.0
20260905224543 71 57 3.0 9.0 0.00 0.00 0.00 86 1017.9
20260905224017 71 17 4.0 11.0 0.00 0.00 0.00 87 1017.9
20260905223516 71 40 4.0 11.0 0.00 0.00 0.00 87 1017.8
20260905223043 71 38 5.0 10.0 0.00 0.00 0.00 87 1017.9
20260905222519 71 57 3.0 7.0 0.00 0.00 0.00 87 1018.0
20260905222020 71 21 2.0 6.0 0.00 0.00 0.00 88 1017.9
20260905221549 70 57 3.0 9.0 0.00 0.00 0.00 89 1017.9
20260905221022 70 54 4.0 9.0 0.00 0.00 0.00 89 1017.9
20260905220517 70 23 3.0 8.0 0.00 0.00 0.00 89 1017.7
20260905220035 70 39 3.0 5.0 0.00 0.00 0.00 89 1017.7
20260905215521 71 49 2.0 6.0 0.00 0.00 0.00 89 1017.9
20260905215019 70 48 3.0 7.0 0.00 0.00 0.00 89 1017.9
20260905214541 70 75 1.0 7.0 0.00 0.00 0.00 90 1017.8
20260905214017 70 86 2.0 7.0 0.00 0.00 0.00 90 1017.7
20260905213519 70 38 3.0 7.0 0.00 0.00 0.00 90 1017.7
20260905213051 70 77 2.0 7.0 0.00 0.00 0.00 90 1017.8
20260905212519 70 42 3.0 10.0 0.00 0.00 0.00 90 1017.9
20260905212019 70 54 3.0 10.0 0.00 0.00 0.00 90 1017.8
20260905211545 71 46 3.0 9.0 0.00 0.00 0.00 89 1017.9
20260905211019 71 71 2.0 6.0 0.00 0.00 0.00 89 1017.8
20260905210521 71 41 2.0 6.0 0.00 0.00 0.00 89 1017.8
20260905210039 71 24 2.0 6.0 0.00 0.00 0.00 89 1017.8
20260905205518 71 22 2.0 6.0 0.00 0.00 0.00 90 1017.8
20260905205018 71 71 3.0 6.0 0.00 0.00 0.00 89 1017.9
20260905204537 71 44 2.0 7.0 0.00 0.00 0.00 89 1017.8
20260905204020 71 38 3.0 7.0 0.00 0.00 0.00 89 1017.8
20260905203520 71 59 3.0 6.0 0.00 0.00 0.00 89 1017.7
20260905203052 71 77 2.0 6.0 0.00 0.00 0.00 89 1017.6
20260905202526 71 50 2.0 9.0 0.00 0.00 0.00 90 1017.6
20260905202018 71 76 3.0 9.0 0.00 0.00 0.00 89 1017.7
20260905201554 71 34 2.0 6.0 0.00 0.00 0.00 89 1017.7
20260905201019 71 107 1.0 6.0 0.00 0.00 0.00 90 1017.7
20260905200520 71 40 3.0 6.0 0.00 0.00 0.00 90 1017.7
20260905200039 71 78 3.0 6.0 0.00 0.00 0.00 90 1017.7
20260905195522 71 53 1.0 8.0 0.00 0.00 0.00 91 1017.7
20260905195021 71 82 2.0 8.0 0.00 0.00 0.00 92 1017.8
20260905194535 70 59 4.0 8.0 0.00 0.00 0.00 92 1017.8
20260905194019 70 41 3.0 6.0 0.00 0.00 0.00 93 1017.8
20260905193520 70 337 3.0 5.0 0.00 0.00 0.00 93 1017.9
20260905193037 70 44 2.0 10.0 0.00 0.00 0.00 93 1017.9
20260905192519 70 64 3.0 10.0 0.00 0.00 0.00 93 1017.9
20260905192019 70 17 4.0 10.0 0.00 0.00 0.00 93 1017.9
20260905191538 70 26 2.0 6.0 0.00 0.00 0.00 93 1017.9
20260905191021 70 34 2.0 11.0 0.00 0.00 0.00 93 1017.9
20260905190517 70 40 3.0 11.0 0.00 0.00 0.00 93 1017.8
20260905190038 70 53 3.0 9.0 0.00 0.00 0.00 93 1017.7
20260905185520 70 55 3.0 11.0 0.00 0.00 0.00 93 1017.8
20260905185020 70 360 5.0 11.0 0.00 0.00 0.00 93 1017.8
20260905184545 70 48 3.0 7.0 0.00 0.00 0.00 94 1017.8
20260905184019 70 103 2.0 8.0 0.00 0.00 0.00 94 1017.8
20260905183520 70 64 4.0 8.0 0.00 0.00 0.00 94 1017.9
20260905183041 70 46 3.0 7.0 0.00 0.00 0.00 94 1017.9
20260905182518 70 46 3.0 9.0 0.00 0.00 0.00 94 1017.9
20260905182016 70 44 4.0 9.0 0.00 0.00 0.00 93 1017.9
20260905181544 70 13 4.0 9.0 0.00 0.00 0.00 93 1017.9
20260905181018 70 38 2.0 6.0 0.00 0.00 0.00 93 1017.8
20260905180518 71 55 3.0 8.0 0.00 0.00 0.00 92 1017.8
20260905180048 71 62 3.0 8.0 0.00 0.00 0.00 92 1017.9
20260905175521 71 63 3.0 5.0 0.00 0.00 0.00 91 1017.9
20260905175020 72 43 2.0 5.0 0.00 0.00 0.00 91 1017.8
20260905174535 72 86 3.0 10.0 0.00 0.00 0.00 91 1017.7
20260905174019 72 130 3.0 10.0 0.00 0.00 0.00 91 1017.6
20260905173520 72 9 5.0 9.0 0.00 0.00 0.00 91 1017.7
20260905173039 72 42 3.0 11.0 0.00 0.00 0.00 91 1017.6
20260905172516 71 40 6.0 11.0 0.00 0.00 0.00 91 1017.6
20260905172022 72 9 4.0 10.0 0.00 0.00 0.00 90 1017.7
20260905171538 72 87 5.0 9.0 0.00 0.00 0.00 90 1017.7
20260905171020 72 55 5.0 9.0 0.00 0.00 0.00 90 1017.6
20260905170520 72 33 2.0 9.0 0.00 0.00 0.00 91 1017.6
20260905170047 72 345 5.0 9.0 0.00 0.00 0.00 91 1017.6
20260905165519 72 36 3.0 9.0 0.00 0.00 0.00 91 1017.6
20260905165017 72 9 4.0 10.0 0.00 0.00 0.00 91 1017.6
20260905164541 72 331 4.0 10.0 0.00 0.00 0.00 90 1017.6
20260905164023 73 352 3.0 8.0 0.00 0.00 0.00 88 1017.5
20260905163528 74 9 4.0 8.0 0.00 0.00 0.00 87 1017.6
20260905163044 74 32 3.0 8.0 0.00 0.00 0.00 87 1017.6
20260905162522 73 17 3.0 8.0 0.00 0.00 0.00 87 1017.6
20260905162018 73 51 3.0 7.0 0.00 0.00 0.00 87 1017.6
20260905161544 73 323 2.0 8.0 0.00 0.00 0.00 87 1017.6
20260905161026 73 53 3.0 8.0 0.00 0.00 0.00 87 1017.6
20260905160525 74 360 3.0 9.0 0.00 0.00 0.00 86 1017.6
20260905160040 73 9 3.0 9.0 0.00 0.00 0.00 87 1017.6
20260905155528 73 5 2.0 9.0 0.00 0.00 0.00 88 1017.6
20260905155022 73 69 4.0 9.0 0.00 0.00 0.00 87 1017.5
20260905154544 73 63 2.0 8.0 0.00 0.00 0.00 88 1017.4
20260905154022 72 13 3.0 8.0 0.00 0.00 0.00 89 1017.4
20260905153518 72 57 3.0 8.0 0.00 0.00 0.00 89 1017.4
20260905153041 72 52 2.0 10.0 0.00 0.00 0.00 89 1017.4
20260905152521 72 19 3.0 10.0 0.00 0.00 0.00 89 1017.3
20260905152020 72 37 3.0 9.0 0.00 0.00 0.00 89 1017.3
20260905151548 72 59 3.0 8.0 0.00 0.00 0.00 90 1017.2
20260905151020 72 10 4.0 8.0 0.00 0.00 0.00 90 1017.3
20260905150519 72 20 2.0 8.0 0.00 0.00 0.00 90 1017.2
20260905150048 72 64 3.0 8.0 0.00 0.00 0.00 90 1017.2
20260905145523 72 35 3.0 8.0 0.00 0.03 0.00 89 1017.2
20260905145019 72 13 3.0 8.0 0.00 0.03 0.00 90 1017.1
20260905144543 72 9 3.0 8.0 0.00 0.03 0.00 90 1017.0
20260905144021 72 44 2.0 9.0 0.00 0.03 0.00 90 1016.8
20260905143519 71 60 2.0 9.0 0.00 0.03 0.00 91 1016.9
20260905143042 71 13 5.0 9.0 0.00 0.03 0.00 90 1016.8
20260905142520 71 62 3.0 8.0 0.00 0.03 0.00 91 1016.7
20260905142030 71 35 4.0 8.0 0.00 0.03 0.00 91 1016.7
20260905141538 71 30 3.0 8.0 0.00 0.03 0.00 91 1016.7
20260905141018 71 65 3.0 9.0 0.00 0.03 0.00 91 1016.7
20260905140518 71 52 3.0 9.0 0.00 0.03 0.00 91 1016.6
20260905140047 71 26 2.0 9.0 0.00 0.03 0.00 91 1016.7
20260905135518 71 59 2.0 5.0 0.00 0.32 0.00 92 1016.7
20260905135019 71 348 2.0 5.0 0.00 0.32 0.00 92 1016.7
20260905134548 71 352 1.0 4.0 0.00 0.32 0.00 92 1016.8
20260905134019 70 5 1.0 5.0 0.00 0.32 0.00 93 1016.9
20260905133521 70 54 2.0 5.0 0.00 0.32 0.00 93 1016.8
20260905133037 70 29 2.0 5.0 0.00 0.32 0.00 93 1016.9
20260905132520 70 71 3.0 5.0 0.00 0.32 0.00 93 1017.1